Cando, ND

4:51 PM CST on February 22, 2017 (GMT -0600)
Cando

Weather History for K9D7 - January, 2014

Change the Weather History Date:

Friday, January 24, 2014

  Actual Average (KDVL) Record (KDVL)
Temperature  
Mean Temperature 20 °F -  
Max Temperature 35 °F 18 °F 47 °F (1973)
Min Temperature 5 °F 1 °F -35 °F (1966)
Degree Days  
Heating Degree Days 45    
Moisture  
Dew Point 21 °F    
Average Humidity 85    
Maximum Humidity 93    
Minimum Humidity 73    
Precipitation  
Precipitation 0.03 in - - ()
Sea Level Pressure  
Sea Level Pressure 29.68 in    
Wind  
Wind Speed 20 mph (NW)    
Max Wind Speed 30 mph    
Max Gust Speed 40 mph    
Visibility 10 miles    
Events Rain    
Averages and records for this station are not official NWS values.
T = Trace of Precipitation, MM = Missing Value Source: NWS Daily Summary

Daily Weather History Graph

Daily Weather History Graph

Search for Another Location

Airport or City:

Trip Planner

Search our weather history database for the weather conditions in past years. The results will help you decide how hot, cold, wet, or windy it might be!

Date:

Astronomy

Jan. 24, 2014 Rise Set
Actual Time 8:15 AM CST 5:23 PM CST
Civil Twilight 7:41 AM CST 5:57 PM CST
Nautical Twilight 7:02 AM CST 6:35 PM CST
Astronomical Twilight 6:25 AM CST 7:13 PM CST
Moon 1:37 AM CST (1/24) 11:48 AM CST (1/24)
Length of Visible Light 10h 16m
Length of Day
9h 07m
Last Quarter, 44% of the Moon is Illuminated
Jan 24
Last Quarter
Jan 30
New
Feb 6
First Quarter
Feb 14
Full
Feb 22
Last Quarter

Hourly Weather History & Observations

Time (CST) Temp. Windchill Dew Point Humidity Pressure Visibility Wind Dir Wind Speed Gust Speed Precip Events Conditions
12:15 AM 26.6 °F 12.0 °F 23.0 °F 86% 29.70 in 10.0 mi WNW 23.0 mph - N/A   Mostly Cloudy
12:35 AM 26.6 °F 12.4 °F 23.0 °F 86% 29.70 in 10.0 mi WNW 21.9 mph - N/A   Partly Cloudy
12:55 AM 26.6 °F 12.7 °F 23.0 °F 86% 29.70 in 10.0 mi WNW 20.7 mph - N/A   Clear
1:15 AM 24.8 °F 11.5 °F 23.0 °F 93% 29.69 in 10.0 mi WNW 17.3 mph 25.3 mph N/A   Clear
1:35 AM 24.8 °F 12.9 °F 21.2 °F 86% 29.70 in 10.0 mi WNW 13.8 mph - N/A   Clear
1:55 AM 24.8 °F 11.5 °F 21.2 °F 86% 29.70 in 10.0 mi NW 17.3 mph - N/A   Clear
2:15 AM 23.0 °F 9.6 °F 19.4 °F 86% 29.70 in 10.0 mi NW 16.1 mph - N/A   Clear
2:35 AM 24.8 °F 11.9 °F 19.4 °F 80% 29.71 in 10.0 mi NW 16.1 mph - N/A   Clear
2:55 AM 23.0 °F 10.6 °F 19.4 °F 86% 29.71 in 10.0 mi WNW 13.8 mph - N/A   Clear
3:15 AM 21.2 °F 7.3 °F 17.6 °F 86% 29.71 in 10.0 mi WNW 16.1 mph - N/A   Clear
3:35 AM 23.0 °F 11.1 °F 19.4 °F 86% 29.71 in 10.0 mi WNW 12.7 mph - N/A   Clear
3:55 AM 23.0 °F 10.1 °F 19.4 °F 86% 29.72 in 10.0 mi WNW 15.0 mph - N/A   Clear
4:15 AM 23.0 °F 10.1 °F 19.4 °F 86% 29.72 in 10.0 mi WNW 15.0 mph - N/A   Clear
4:35 AM 23.0 °F 8.7 °F 19.4 °F 86% 29.71 in 10.0 mi WNW 18.4 mph - N/A   Clear
4:55 AM 23.0 °F 9.6 °F 19.4 °F 86% 29.70 in 10.0 mi WNW 16.1 mph - N/A   Clear
5:15 AM 23.0 °F 10.1 °F 19.4 °F 86% 29.70 in 10.0 mi WNW 15.0 mph - N/A   Clear
5:35 AM 23.0 °F 10.1 °F 19.4 °F 86% 29.69 in 10.0 mi West 15.0 mph - N/A   Clear
5:55 AM 23.0 °F 9.6 °F 19.4 °F 86% 29.69 in 10.0 mi West 16.1 mph - N/A   Clear
6:15 AM 23.0 °F 9.6 °F 21.2 °F 93% 29.68 in 10.0 mi WNW 16.1 mph - N/A   Partly Cloudy
6:35 AM 24.8 °F 11.5 °F 21.2 °F 86% 29.68 in 10.0 mi WNW 17.3 mph - N/A   Mostly Cloudy
6:55 AM 24.8 °F 11.5 °F 21.2 °F 86% 29.67 in 10.0 mi WNW 17.3 mph - N/A   Scattered Clouds
7:15 AM 24.8 °F 11.5 °F 23.0 °F 93% 29.66 in 10.0 mi WNW 17.3 mph - N/A   Mostly Cloudy
7:35 AM 24.8 °F 11.9 °F 23.0 °F 93% 29.65 in 10.0 mi WNW 16.1 mph - N/A   Overcast
7:55 AM 26.6 °F 13.4 °F 23.0 °F 86% 29.64 in 10.0 mi WNW 18.4 mph - N/A   Overcast
8:15 AM 26.6 °F 12.4 °F 23.0 °F 86% 29.63 in 10.0 mi WNW 21.9 mph 25.3 mph N/A   Overcast
8:35 AM 28.4 °F 14.7 °F 24.8 °F 86% 29.63 in 10.0 mi WNW 21.9 mph - N/A   Overcast
8:55 AM 28.4 °F 13.8 °F 24.8 °F 86% 29.61 in 8.0 mi WNW 25.3 mph 31.1 mph N/A   Overcast
9:15 AM 28.4 °F 13.8 °F 24.8 °F 86% 29.61 in 10.0 mi WNW 25.3 mph 31.1 mph N/A   Overcast
9:35 AM 28.4 °F 13.3 °F 24.8 °F 86% 29.60 in 8.0 mi WNW 27.6 mph 33.4 mph N/A   Overcast
9:55 AM 30.2 °F 15.7 °F 26.6 °F 86% 29.60 in 5.0 mi WNW 27.6 mph 33.4 mph N/A   Mostly Cloudy
10:15 AM 30.2 °F 16.2 °F 26.6 °F 86% 29.59 in 10.0 mi WNW 25.3 mph 28.8 mph N/A   Overcast
10:35 AM 32.0 °F 18.1 °F 26.6 °F 80% 29.58 in 10.0 mi WNW 27.6 mph 33.4 mph N/A   Overcast
10:55 AM 32.0 °F 17.9 °F 28.4 °F 87% 29.57 in 10.0 mi WNW 28.8 mph 33.4 mph N/A   Overcast
11:15 AM 32.0 °F 18.1 °F 28.4 °F 87% 29.57 in 10.0 mi WNW 27.6 mph 34.5 mph N/A   Overcast
11:35 AM 32.0 °F 18.4 °F 28.4 °F 87% 29.57 in 10.0 mi WNW 26.5 mph 32.2 mph N/A   Overcast
11:55 AM 32.0 °F 18.4 °F 28.4 °F 87% 29.56 in 10.0 mi WNW 26.5 mph 34.5 mph N/A   Overcast
12:15 PM 32.0 °F 18.1 °F 28.4 °F 87% 29.55 in 10.0 mi WNW 27.6 mph 32.2 mph N/A   Overcast
12:35 PM 32.0 °F 19.2 °F 28.4 °F 87% 29.56 in 10.0 mi WNW 23.0 mph 29.9 mph N/A   Overcast
12:55 PM 32.0 °F 19.5 °F 30.2 °F 93% 29.55 in 10.0 mi WNW 21.9 mph - N/A   Overcast
1:15 PM 32.0 °F 19.8 °F 30.2 °F 93% 29.53 in 10.0 mi WNW 20.7 mph 26.5 mph N/A   Scattered Clouds
1:35 PM 32.0 °F 20.8 °F 30.2 °F 93% 29.54 in 10.0 mi WNW 17.3 mph 25.3 mph N/A   Mostly Cloudy
1:55 PM 33.8 °F 22.8 °F 30.2 °F 87% 29.54 in 10.0 mi NW 18.4 mph - N/A   Mostly Cloudy
2:15 PM 33.8 °F 23.5 °F 30.2 °F 87% 29.54 in 10.0 mi NW 16.1 mph - N/A   Overcast
2:35 PM 35.6 °F 24.0 °F 30.2 °F 81% 29.55 in 10.0 mi NNW 23.0 mph 32.2 mph N/A   Overcast
2:55 PM 35.6 °F 22.5 °F 30.2 °F 81% 29.56 in 10.0 mi NNW 29.9 mph 38.0 mph N/A   Mostly Cloudy
3:15 PM 32.0 °F 18.9 °F 30.2 °F 93% 29.58 in 8.0 mi NNW 24.2 mph 33.4 mph N/A   Mostly Cloudy
3:35 PM 33.8 °F 21.3 °F 28.4 °F 81% 29.58 in 10.0 mi NNW 24.2 mph 32.2 mph N/A   Mostly Cloudy
3:55 PM 33.8 °F 21.3 °F 28.4 °F 81% 29.59 in 10.0 mi NNW 24.2 mph 29.9 mph N/A   Overcast
4:15 PM 33.8 °F 20.8 °F 28.4 °F 81% 29.59 in 10.0 mi NNW 26.5 mph - N/A   Overcast
4:35 PM 33.8 °F 21.6 °F 28.4 °F 81% 29.60 in 10.0 mi NNW 23.0 mph 29.9 mph N/A   Overcast
4:55 PM 32.0 °F 19.5 °F 28.4 °F 87% 29.61 in 10.0 mi NNW 21.9 mph - N/A   Overcast
5:15 PM 30.2 °F 16.8 °F 26.6 °F 86% 29.65 in 1.5 mi NNE 23.0 mph 40.3 mph 0.01 in Rain Light Freezing Rain
5:35 PM 26.6 °F 12.0 °F 23.0 °F 86% 29.67 in 10.0 mi NNE 23.0 mph 32.2 mph 0.02 in Rain Light Freezing Rain
5:55 PM 24.8 °F 10.3 °F 21.2 °F 86% 29.69 in 4.0 mi NNE 20.7 mph 32.2 mph 0.03 in Rain Light Freezing Rain
6:15 PM 23.0 °F 8.3 °F 21.2 °F 93% 29.70 in 7.0 mi North 19.6 mph 27.6 mph N/A Rain Light Freezing Rain
6:35 PM 23.0 °F 9.2 °F 19.4 °F 86% 29.71 in 10.0 mi NNE 17.3 mph - N/A Rain Light Freezing Rain
6:55 PM 23.0 °F 8.3 °F 17.6 °F 80% 29.73 in 10.0 mi NNE 19.6 mph - N/A   Overcast
7:15 PM 21.2 °F 6.0 °F 15.8 °F 80% 29.74 in 10.0 mi North 19.6 mph 24.2 mph N/A Rain Light Freezing Rain
7:35 PM 21.2 °F 6.0 °F 15.8 °F 80% 29.76 in 10.0 mi North 19.6 mph - N/A Rain Light Freezing Rain
7:55 PM 19.4 °F 4.1 °F 14.0 °F 80% 29.77 in 10.0 mi North 18.4 mph - N/A Rain Light Freezing Rain
8:15 PM 19.4 °F 1.4 °F 14.0 °F 80% 29.78 in 7.0 mi North 26.5 mph - N/A Rain Light Freezing Rain
8:35 PM 17.6 °F 1.3 °F 14.0 °F 86% 29.79 in 8.0 mi NNE 19.6 mph - N/A Rain Light Freezing Rain
8:55 PM 15.8 °F -3.1 °F 10.4 °F 79% 29.81 in 7.0 mi North 25.3 mph 31.1 mph N/A   Overcast
9:15 PM 14.0 °F -5.1 °F 8.6 °F 79% 29.82 in 7.0 mi NNE 24.2 mph - N/A   Overcast
9:35 PM 14.0 °F -2.5 °F 6.8 °F 73% 29.82 in 10.0 mi North 17.3 mph 26.5 mph N/A   Overcast
9:55 PM 14.0 °F -3.4 °F 6.8 °F 73% 29.82 in 10.0 mi North 19.6 mph 25.3 mph N/A   Overcast
10:15 PM 10.4 °F -6.0 °F 5.0 °F 79% 29.83 in 10.0 mi North 15.0 mph - N/A   Overcast
10:35 PM 8.6 °F -7.7 °F 5.0 °F 85% 29.84 in 10.0 mi North 13.8 mph - N/A   Scattered Clouds
10:55 PM 8.6 °F -7.0 °F 1.4 °F 73% 29.85 in 10.0 mi North 12.7 mph - N/A   Mostly Cloudy
11:15 PM 6.8 °F -5.9 °F 1.4 °F 79% 29.86 in 10.0 mi NNW 8.1 mph - N/A   Partly Cloudy
11:35 PM 5.0 °F -5.6 °F -0.4 °F 78% 29.87 in 10.0 mi NW 5.8 mph - N/A   Partly Cloudy
11:55 PM 5.0 °F -10.0 °F -0.4 °F 78% 29.87 in 10.0 mi NNW 10.4 mph - N/A   Partly Cloudy